Location: Fundy National Park
(45.6138°N, 65.0316°W)
Time: 16:23:03
(UTC-04:00)

BlueWalker 3 - Pass Details

Date: 01 December 2022
Orbit: 499 x 517 km, 53.2° (Epoch: 04 February)

Event Time Altitude Azimuth Distance (km) Brightness Sun altitude
Rises 18:43:12 0° 291° (WNW) 2,626 6.6 -21.2°
Reaches altitude 10° 18:45:40 10° 304° (NW) 1,735 5.3 -21.7°
Enters shadow 18:48:36 26° 352° (N) 1,041 3.5 -22.2°
